Location: Waco, TX
(31.5480°N, 97.1670°W)
Time: 21:36:44
(UTC-06:00)

ISS - Pass Details

Date: 08 January 2018
Orbit: 402 x 407 km, 51.6° (Epoch: 18 January)

Event Time Altitude Azimuth Distance (km) Brightness Sun altitude
Rises 08:58:53 0° 323° (NW) 2,327 -0.6 15.3°
Reaches altitude 10° 09:01:04 10° 332° (NNW) 1,465 -1.5 15.7°
Maximum altitude 09:04:08 35° 41° (NE) 673 -2.5 16.2°
Drops below altitude 10° 09:07:10 10° 109° (ESE) 1,460 0.6 16.7°
Sets 09:09:21 0° 119° (ESE) 2,317 1.6 17.1°
